Middletown, RI

4:22 PM EDT on September 30, 2016 (GMT -0400)
Newport State

Weather History for KUUU - December, 2011

Change the Weather History Date:

Wednesday, December 7, 2011

  Actual Average Record
Temperature  
Mean Temperature 52 °F -  
Max Temperature 55 °F 46 °F 66 °F (1998)
Min Temperature 48 °F 30 °F 12 °F (2002)
Degree Days  
Heating Degree Days 14    
Growing Degree Days 2 (Base 50)    
Moisture  
Dew Point 52 °F    
Average Humidity 97    
Maximum Humidity 100    
Minimum Humidity 93    
Precipitation  
Precipitation 0.83 in - - ()
Sea Level Pressure  
Sea Level Pressure 29.72 in    
Wind  
Wind Speed 6 mph (SE)    
Max Wind Speed 13 mph    
Max Gust Speed 18 mph    
Visibility 3 miles    
Events Fog , Rain    
Averages and records for this station are not official NWS values.
T = Trace of Precipitation, MM = Missing Value Source: NWS Daily Summary

Daily Weather History Graph

Daily Weather History Graph

Search for Another Location

Airport or City:

Trip Planner

Search our weather history database for the weather conditions in past years. The results will help you decide how hot, cold, wet, or windy it might be!

Date:

Astronomy

Dec. 07, 2011 Rise Set
Actual Time 6:57 AM EST 4:15 PM EST
Civil Twilight 6:26 AM EST 4:46 PM EST
Nautical Twilight 5:51 AM EST 5:20 PM EST
Astronomical Twilight 5:18 AM EST 5:54 PM EST
Moon 2:14 PM EST (12/7) 4:09 AM EST (12/7)
Length of Visible Light 10h 19m
Length of Day
9h 17m
Waxing Gibbous, 92% of the Moon is Illuminated
Dec 7
Waxing Gibbous
Dec 10
Full
Dec 17
Last Quarter
Dec 24
New
Jan 1
First Quarter

Hourly Weather History & Observations

Time (EST) Temp. Dew Point Humidity Pressure Visibility Wind Dir Wind Speed Gust Speed Precip Events Conditions
12:53 AM 55.9 °F 55.0 °F 97% 29.92 in 4.0 mi Variable 6.9 mph - 0.00 in   Overcast
1:15 AM 55.4 °F 55.4 °F 100% 29.92 in 2.0 mi SSW 6.9 mph - N/A   Overcast
1:28 AM 55.4 °F 55.4 °F 100% 29.92 in 3.0 mi SW 5.8 mph - 0.00 in Rain Light Rain
1:53 AM 55.9 °F 55.0 °F 97% 29.91 in 4.0 mi Variable 5.8 mph - 0.00 in Rain Light Rain
2:35 AM 55.4 °F 55.4 °F 100% 29.90 in 2.5 mi SSW 5.8 mph - 0.01 in Rain Light Rain
2:43 AM 55.4 °F 55.4 °F 100% 29.89 in 4.0 mi SSW 3.5 mph - 0.01 in Rain Light Rain
3:16 AM 55.4 °F 55.4 °F 100% 29.89 in 1.8 mi SSW 5.8 mph - N/A   Overcast
4:19 AM 55.4 °F 55.4 °F 100% 29.88 in 0.8 mi SSW 5.8 mph - N/A   Mist
5:53 AM 55.9 °F 55.0 °F 97% 29.87 in 1.2 mi SSW 6.9 mph - N/A   Overcast
6:15 AM 55.4 °F 55.4 °F 100% 29.87 in 3.0 mi SSW 4.6 mph - 0.03 in Rain Light Rain
6:34 AM 55.4 °F 55.4 °F 100% 29.86 in 1.8 mi Calm Calm - 0.03 in   Overcast
6:48 AM 55.4 °F 55.4 °F 100% 29.86 in 0.8 mi SSW 5.8 mph - 0.03 in Rain Light Rain
7:10 AM 55.4 °F 55.4 °F 100% 29.87 in 1.8 mi SW 3.5 mph - 0.01 in Rain Light Rain
7:18 AM 55.4 °F 55.4 °F 100% 29.87 in 2.5 mi SSW 4.6 mph - 0.01 in Rain Light Rain
7:43 AM 55.4 °F 55.4 °F 100% 29.86 in 5.0 mi SSW 5.8 mph - 0.02 in Rain Light Rain
8:03 AM 55.4 °F 55.4 °F 100% 29.84 in 0.2 mi South 9.2 mph - 0.00 in Fog , Rain Light Rain
8:40 AM 55.4 °F 55.4 °F 100% 29.85 in 1.5 mi Calm Calm - 0.01 in Rain Light Rain
8:53 AM 55.9 °F 55.0 °F 97% 29.85 in 0.8 mi SSW 3.5 mph - 0.02 in Rain Light Rain
9:10 AM 55.4 °F 55.4 °F 100% 29.83 in 1.2 mi Variable 4.6 mph - 0.01 in Rain Light Rain
9:15 AM 55.4 °F 55.4 °F 100% 29.83 in 3.0 mi SSW 4.6 mph - 0.01 in Rain Light Rain
9:53 AM 55.9 °F 55.0 °F 97% 29.83 in 6.0 mi South 5.8 mph - 0.01 in Rain Light Rain
10:24 AM 55.4 °F 55.4 °F 100% 29.84 in 0.5 mi SSW 8.1 mph - 0.02 in Fog Fog
10:53 AM 55.9 °F 55.9 °F 100% 29.81 in 0.5 mi SW 5.8 mph - 0.03 in Fog , Rain Rain
11:35 AM 55.4 °F 55.4 °F 100% 29.78 in 1.2 mi South 3.5 mph - 0.01 in Rain Light Rain
11:53 AM 55.9 °F 55.9 °F 100% 29.77 in 1.5 mi South 4.6 mph - 0.02 in Rain Light Rain
12:32 PM 55.4 °F 53.6 °F 94% 29.76 in 0.5 mi South 6.9 mph - 0.03 in Fog , Rain Light Rain
12:43 PM 55.4 °F 55.4 °F 100% 29.75 in 2.0 mi South 6.9 mph - 0.03 in Rain Light Rain
12:53 PM 55.9 °F 55.9 °F 100% 29.74 in 1.5 mi South 9.2 mph 17.3 mph 0.05 in Rain Light Rain
1:07 PM 55.4 °F 55.4 °F 100% 29.73 in 3.0 mi SSW 3.5 mph - 0.01 in Rain Light Rain
1:39 PM 55.4 °F 55.4 °F 100% 29.73 in 1.8 mi South 4.6 mph - 0.02 in Rain Light Rain
1:53 PM 55.9 °F 55.9 °F 100% 29.72 in 1.5 mi Calm Calm - 0.05 in Rain Light Rain
2:06 PM 55.4 °F 55.4 °F 100% 29.71 in 3.0 mi Calm Calm - 0.00 in Rain Light Rain
2:28 PM 55.4 °F 55.4 °F 100% 29.71 in 1.8 mi Calm Calm - 0.02 in Rain Light Rain
2:53 PM 55.9 °F 55.0 °F 97% 29.70 in 1.5 mi Calm Calm - 0.08 in Rain Rain
3:17 PM 55.4 °F 55.4 °F 100% 29.69 in 1.5 mi Calm Calm - 0.05 in Rain Rain
3:53 PM 55.9 °F 54.0 °F 93% 29.66 in 2.0 mi ENE 6.9 mph - 0.11 in Rain Light Rain
3:57 PM 55.4 °F 53.6 °F 94% 29.67 in 3.0 mi NE 8.1 mph - 0.00 in Rain Light Rain
4:07 PM 53.6 °F 51.8 °F 94% 29.67 in 2.5 mi NE 6.9 mph - 0.01 in Rain Light Rain
4:22 PM 53.6 °F 51.8 °F 94% 29.67 in 2.5 mi NNE 6.9 mph - 0.03 in Rain Light Rain
4:30 PM 53.6 °F 51.8 °F 94% 29.66 in 5.0 mi NNE 4.6 mph - 0.03 in Rain Light Rain
4:38 PM 53.6 °F 51.8 °F 94% 29.66 in 3.0 mi Calm Calm - 0.03 in Rain Light Rain
4:53 PM 53.1 °F 51.1 °F 93% 29.65 in 5.0 mi Variable 3.5 mph - 0.04 in Rain Light Rain
5:53 PM 48.9 °F 48.0 °F 97% 29.66 in 2.5 mi North 9.2 mph - 0.09 in Rain Rain
6:17 PM 48.2 °F 46.4 °F 93% 29.66 in 2.5 mi North 12.7 mph - 0.07 in Rain Heavy Rain
6:24 PM 48.2 °F 46.4 °F 93% 29.65 in 3.0 mi NNE 11.5 mph 18.4 mph 0.08 in Rain Light Rain
6:53 PM 48.0 °F 46.0 °F 93% 29.66 in 4.0 mi North 9.2 mph - 0.09 in   Overcast
7:08 PM 48.2 °F 46.4 °F 93% 29.63 in 2.0 mi NNE 12.7 mph - 0.00 in Rain Light Rain
7:27 PM 48.2 °F 46.4 °F 93% 29.62 in 5.0 mi NE 10.4 mph - 0.02 in Rain Light Rain
7:53 PM 48.0 °F 46.9 °F 96% 29.60 in 2.5 mi ENE 11.5 mph - 0.02 in Rain Light Rain
8:00 PM 48.2 °F 46.4 °F 93% 29.60 in 4.0 mi ENE 11.5 mph - 0.00 in Rain Light Rain
8:22 PM 48.2 °F 46.4 °F 93% 29.58 in 9.0 mi ENE 9.2 mph - 0.00 in   Overcast
8:53 PM 48.9 °F 46.9 °F 93% 29.56 in 7.0 mi ENE 6.9 mph - 0.00 in   Overcast
9:42 PM 48.2 °F 48.2 °F 100% 29.53 in 8.0 mi North 9.2 mph - 0.00 in   Overcast
9:53 PM 48.9 °F 48.0 °F 97% 29.52 in 4.0 mi NNE 8.1 mph - 0.01 in Rain Rain
10:22 PM 48.2 °F 48.2 °F 100% 29.48 in 4.0 mi North 10.4 mph - 0.02 in Rain Light Rain
10:53 PM 48.0 °F 46.9 °F 96% 29.47 in 3.0 mi North 9.2 mph - 0.06 in Rain Rain
11:31 PM 48.2 °F 46.4 °F 93% 29.42 in 1.8 mi NNE 11.5 mph - 0.06 in Rain Rain
11:43 PM 48.2 °F 46.4 °F 93% 29.41 in 2.0 mi NNE 11.5 mph - 0.08 in Rain Rain
11:51 PM 48.2 °F 46.4 °F 93% 29.41 in 1.8 mi NNE 12.7 mph - 0.15 in Rain Rain
11:53 PM 48.0 °F 46.0 °F 93% 29.40 in 2.0 mi NNE 11.5 mph - 0.15 in Rain Light Rain
11:57 PM 48.2 °F 46.4 °F 93% 29.40 in 4.0 mi NE 12.7 mph - 0.00 in Rain Light Rain